This demonstration page uses our WeatherBlox Daily Observations layout. Learn more.

Left ArrowRight Arrow

36.19886, -115.1175

Hourly Observations for October 31, 2015

Temp ( °F °C ) Dew Point ( °F °C ) Humidity (%) Winds ( mph kmh ) Pressure ( in mb ) Visibility ( mi km ) Precip ( " mm )
12:53 am 00:53 Clear 66 18.9 27 -2.8 23 23 N 7 11 30.04 1017 10 16 0.00 0.00
1:53 am 01:53 Clear 65 18.3 28 -2.2 25 25 N 12 19 30.05 1018 10 16 0.00 0.00
2:53 am 02:53 Clear 62 16.7 28 -2.2 28 28 NNE 7 11 30.06 1018 10 16 0.00 0.00
3:53 am 03:53 Clear 64 17.8 29 -1.7 27 27 N 7 11 30.07 1018 10 16 0.00 0.00
4:53 am 04:53 Clear 62 16.7 30 -1.1 30 30 NNW 7 11 30.08 1019 10 16 0.00 0.00
5:53 am 05:53 Clear 59 15 31 -0.6 35 35 NW 9 15 30.11 1020 10 16 0.00 0.00
6:53 am 06:53 Clear 60 15.6 31 -0.6 33 33 NNW 3 6 30.12 1020 10 16 0.00 0.00
7:53 am 07:53 Sunny 62 16.7 32 0 32 32 N 12 19 30.13 1020 10 16 0.00 0.00
8:53 am 08:53 Sunny 67 19.4 33 0.6 28 28 N 7 11 30.15 1021 10 16 0.00 0.00
9:53 am 09:53 Sunny 67 19.4 35 1.7 31 31 SE 7 11 30.16 1021 10 16 0.00 0.00
10:53 am 10:53 Sunny 70 21.1 34 1.1 27 27 SE 8 13 30.16 1021 10 16 0.00 0.00
11:53 am 11:53 Sunny 73 22.8 35 1.7 25 25 SSE 5 7 30.14 1021 10 16 0.00 0.00
12:53 pm 12:53 Sunny 75 23.9 35 1.7 23 23 Calm 30.11 1020 10 16 0.00 0.00
1:53 pm 13:53 Sunny 76 24.4 35 1.7 23 23 SE 3 6 30.08 1019 10 16 0.00 0.00
2:53 pm 14:53 Sunny 78 25.6 35 1.7 21 21 VRB 5 7 30.07 1018 10 16 0.00 0.00
3:53 pm 15:53 Sunny 78 25.6 35 1.7 21 21 S 6 9 30.06 1018 10 16 0.00 0.00
4:53 pm 16:53 Sunny 78 25.6 35 1.7 21 21 S 8 13 30.06 1018 10 16 0.00 0.00
5:53 pm 17:53 Clear 76 24.4 35 1.7 23 23 SSE 3 6 30.05 1018 10 16 0.00 0.00
6:53 pm 18:53 Clear 73 22.8 36 2.2 26 26 Calm 30.07 1018 10 16 0.00 0.00
7:53 pm 19:53 Clear 69 20.6 38 3.3 32 32 WNW 6 9 30.09 1019 10 16 0.00 0.00

Powered by AerisWeather